Time,TemperatureF,DewpointF,PressureIn,WindDirection,WindDirectionDegrees,WindSpeedMPH,WindSpeedGustMPH,Humidity,HourlyPrecipIn,Conditions,Clouds,dailyrainin,SoftwareType,DateUTC
2017-03-24 00:00:00,68.7,61.9,30.31,East,94,1.0,6.0,79,0.00,,OVC055,0.00,VWS V15.00,2017-03-24 04:00:00,
2017-03-24 00:05:00,68.7,61.2,30.30,ENE,67,1.0,9.0,77,0.00,,OVC055,0.00,VWS V15.00,2017-03-24 04:05:00,
2017-03-24 00:10:00,68.8,61.7,30.30,ENE,73,1.0,9.0,78,0.00,,OVC055,0.00,VWS V15.00,2017-03-24 04:10:00,
2017-03-24 00:15:00,68.8,61.3,30.31,ESE,114,1.0,14.0,77,0.00,,OVC055,0.00,VWS V15.00,2017-03-24 04:15:00,
2017-03-24 00:20:00,68.8,61.3,30.30,ENE,76,2.0,14.0,77,0.00,,OVC055,0.00,VWS V15.00,2017-03-24 04:20:00,
2017-03-24 00:25:00,68.8,60.9,30.31,NE,49,4.0,14.0,76,0.00,,OVC055,0.00,VWS V15.00,2017-03-24 04:25:00,
2017-03-24 00:30:00,68.8,61.3,30.31,East,101,3.0,14.0,77,0.00,,OVC055,0.00,VWS V15.00,2017-03-24 04:30:00,
2017-03-24 00:35:00,68.8,61.3,30.30,ESE,102,0.0,14.0,77,0.00,,OVC055,0.00,VWS V15.00,2017-03-24 04:35:00,
2017-03-24 00:40:00,68.9,61.4,30.30,ENE,76,2.0,14.0,77,0.00,,OVC065,0.00,VWS V15.00,2017-03-24 04:40:00,
2017-03-24 00:45:00,68.9,61.0,30.30,ENE,65,5.0,14.0,76,0.00,,OVC065,0.00,VWS V15.00,2017-03-24 04:45:00,
2017-03-24 00:50:00,68.8,60.9,30.30,ENE,60,11.0,14.0,76,0.00,,OVC065,0.00,VWS V15.00,2017-03-24 04:50:00,
2017-03-24 00:55:00,68.9,60.7,30.31,NE,36,0.0,14.0,75,0.00,,OVC065,0.00,VWS V15.00,2017-03-24 04:55:00,
2017-03-24 01:00:00,68.9,61.0,30.30,ENE,61,0.0,2.0,76,0.00,,OVC065,0.00,VWS V15.00,2017-03-24 05:00:00,
2017-03-24 01:05:00,68.9,60.3,30.31,East,97,1.0,9.0,74,0.00,,OVC065,0.00,VWS V15.00,2017-03-24 05:05:00,
2017-03-24 01:10:00,68.9,60.7,30.30,ENE,73,1.0,9.0,75,0.00,,OVC065,0.00,VWS V15.00,2017-03-24 05:10:00,
2017-03-24 01:15:00,68.8,60.6,30.30,East,80,0.0,9.0,75,0.00,,OVC065,0.00,VWS V15.00,2017-03-24 05:15:00,
2017-03-24 01:20:00,68.8,60.9,30.30,ENE,70,0.0,10.0,76,0.00,,OVC065,0.00,VWS V15.00,2017-03-24 05:20:00,
2017-03-24 01:25:00,68.8,61.3,30.30,ENE,65,0.0,13.0,77,0.00,,OVC065,0.00,VWS V15.00,2017-03-24 05:25:00,
2017-03-24 01:30:00,68.8,60.9,30.30,NE,56,0.0,13.0,76,0.00,,OVC065,0.00,VWS V15.00,2017-03-24 05:30:00,
2017-03-24 01:35:00,68.8,60.9,30.30,ENE,77,0.0,13.0,76,0.00,,OVC065,0.00,VWS V15.00,2017-03-24 05:35:00,
2017-03-24 01:40:00,68.8,60.6,30.30,ESE,109,0.0,13.0,75,0.00,,CLR,0.00,VWS V15.00,2017-03-24 05:40:00,
2017-03-24 01:45:00,68.9,61.0,30.31,NE,48,1.0,13.0,76,0.00,,CLR,0.00,VWS V15.00,2017-03-24 05:45:00,
2017-03-24 01:50:00,68.8,60.9,30.30,ENE,59,0.0,13.0,76,0.00,,CLR,0.00,VWS V15.00,2017-03-24 05:50:00,
2017-03-24 01:55:00,68.8,60.6,30.30,ENE,57,6.0,13.0,75,0.00,,CLR,0.00,VWS V15.00,2017-03-24 05:55:00,
2017-03-24 02:00:00,68.8,60.2,30.29,ENE,74,0.0,10.0,74,0.00,,CLR,0.00,VWS V15.00,2017-03-24 06:00:00,
2017-03-24 02:05:00,68.8,60.2,30.29,East,83,4.0,11.0,74,0.00,,CLR,0.00,VWS V15.00,2017-03-24 06:05:00,
2017-03-24 02:10:00,68.7,60.8,30.29,East,82,0.0,11.0,76,0.00,,CLR,0.00,VWS V15.00,2017-03-24 06:10:00,
2017-03-24 02:15:00,68.7,60.1,30.29,ENE,61,0.0,11.0,74,0.00,,CLR,0.00,VWS V15.00,2017-03-24 06:15:00,
2017-03-24 02:20:00,68.7,60.5,30.29,NE,34,1.0,11.0,75,0.00,,CLR,0.00,VWS V15.00,2017-03-24 06:20:00,
2017-03-24 02:25:00,68.5,60.3,30.29,ESE,108,12.0,12.0,75,0.00,,CLR,0.00,VWS V15.00,2017-03-24 06:25:00,
2017-03-24 02:30:00,68.5,59.9,30.29,ESE,104,0.0,12.0,74,0.00,,CLR,0.00,VWS V15.00,2017-03-24 06:30:00,
2017-03-24 02:35:00,68.5,60.3,30.28,NE,44,2.0,12.0,75,0.00,,CLR,0.00,VWS V15.00,2017-03-24 06:35:00,
2017-03-24 02:40:00,68.5,60.3,30.28,NE,53,3.0,12.0,75,0.00,,OVC040,0.00,VWS V15.00,2017-03-24 06:40:00,
2017-03-24 02:45:00,68.6,60.4,30.29,ENE,64,1.0,12.0,75,0.00,,OVC040,0.00,VWS V15.00,2017-03-24 06:45:00,
2017-03-24 02:50:00,68.5,60.3,30.29,East,96,6.0,12.0,75,0.00,,OVC040,0.00,VWS V15.00,2017-03-24 06:50:00,
2017-03-24 02:55:00,68.4,59.8,30.29,ENE,75,0.0,12.0,74,0.00,,OVC040,0.00,VWS V15.00,2017-03-24 06:55:00,
2017-03-24 03:00:00,68.5,60.3,30.29,ENE,76,0.0,5.0,75,0.00,,OVC040,0.00,VWS V15.00,2017-03-24 07:00:00,
2017-03-24 03:05:00,68.4,60.2,30.29,ENE,60,1.0,6.0,75,0.00,,OVC040,0.00,VWS V15.00,2017-03-24 07:05:00,
2017-03-24 03:10:00,68.4,60.2,30.28,East,84,0.0,8.0,75,0.00,,OVC040,0.00,VWS V15.00,2017-03-24 07:10:00,
2017-03-24 03:15:00,68.4,59.8,30.28,ENE,70,0.0,11.0,74,0.00,,OVC040,0.00,VWS V15.00,2017-03-24 07:15:00,
2017-03-24 03:20:00,68.3,59.7,30.28,East,86,4.0,11.0,74,0.00,,OVC040,0.00,VWS V15.00,2017-03-24 07:20:00,
2017-03-24 03:21:00,68.3,59.7,30.28,NE,52,0.0,11.0,74,0.00,,OVC040,0.00,VWS V15.00,2017-03-24 07:21:00,
2017-03-24 03:26:00,68.3,59.3,30.28,East,98,8.0,11.0,73,0.00,,OVC040,0.00,VWS V15.00,2017-03-24 07:26:00,
2017-03-24 03:31:00,68.3,59.7,30.28,ENE,76,0.0,11.0,74,0.00,,OVC040,0.00,VWS V15.00,2017-03-24 07:31:00,
2017-03-24 03:36:00,68.2,59.6,30.28,NE,47,0.0,11.0,74,0.00,,OVC040,0.00,VWS V15.00,2017-03-24 07:36:00,
2017-03-24 03:41:00,68.1,59.1,30.28,ENE,68,0.0,11.0,73,0.00,,OVC055,0.00,VWS V15.00,2017-03-24 07:41:00,
2017-03-24 03:46:00,68.1,59.5,30.28,NE,53,0.0,11.0,74,0.00,,OVC055,0.00,VWS V15.00,2017-03-24 07:46:00,
2017-03-24 03:51:00,68.2,59.6,30.28,ENE,67,1.0,11.0,74,0.00,,OVC055,0.00,VWS V15.00,2017-03-24 07:51:00,
2017-03-24 03:56:00,68.2,60.0,30.28,NE,50,0.0,11.0,75,0.00,,OVC055,0.00,VWS V15.00,2017-03-24 07:56:00,
2017-03-24 04:01:00,68.2,60.0,30.27,ENE,70,1.0,6.0,75,0.00,,OVC055,0.00,VWS V15.00,2017-03-24 08:01:00,
2017-03-24 04:06:00,68.3,59.3,30.27,NE,52,0.0,8.0,73,0.00,,OVC055,0.00,VWS V15.00,2017-03-24 08:06:00,
2017-03-24 04:11:00,68.2,59.2,30.28,ENE,72,0.0,8.0,73,0.00,,OVC055,0.00,VWS V15.00,2017-03-24 08:11:00,
2017-03-24 04:16:00,68.2,59.2,30.27,ENE,67,1.0,8.0,73,0.00,,OVC055,0.00,VWS V15.00,2017-03-24 08:16:00,
2017-03-24 04:21:00,68.3,59.7,30.27,NE,56,12.0,12.0,74,0.00,,OVC055,0.00,VWS V15.00,2017-03-24 08:21:00,
2017-03-24 04:26:00,68.2,59.6,30.27,NE,36,3.0,12.0,74,0.00,,OVC055,0.00,VWS V15.00,2017-03-24 08:26:00,
2017-03-24 04:31:00,68.1,58.7,30.27,ENE,60,3.0,12.0,72,0.00,,OVC055,0.00,VWS V15.00,2017-03-24 08:31:00,
2017-03-24 04:36:00,68.2,59.2,30.26,NE,45,0.0,12.0,73,0.00,,OVC055,0.00,VWS V15.00,2017-03-24 08:36:00,
2017-03-24 04:41:00,68.1,59.1,30.27,ENE,61,2.0,12.0,73,0.00,,OVC049,0.00,VWS V15.00,2017-03-24 08:41:00,
2017-03-24 04:46:00,68.0,59.0,30.26,ENE,64,0.0,12.0,73,0.00,,OVC049,0.00,VWS V15.00,2017-03-24 08:46:00,
2017-03-24 04:47:00,68.0,59.0,30.26,ENE,78,1.0,12.0,73,0.00,,OVC049,0.00,VWS V15.00,2017-03-24 08:47:00,
2017-03-24 04:52:00,68.0,58.7,30.26,NE,48,4.0,12.0,72,0.00,,OVC049,0.00,VWS V15.00,2017-03-24 08:52:00,
2017-03-24 04:57:00,68.0,59.4,30.27,ENE,67,0.0,12.0,74,0.00,,OVC049,0.00,VWS V15.00,2017-03-24 08:57:00,
2017-03-24 05:02:00,68.0,59.4,30.26,NE,45,3.0,6.0,74,0.00,,OVC049,0.00,VWS V15.00,2017-03-24 09:02:00,
2017-03-24 05:07:00,67.9,59.7,30.26,NE,50,0.0,6.0,75,0.00,,OVC049,0.00,VWS V15.00,2017-03-24 09:07:00,
2017-03-24 05:12:00,67.9,59.3,30.26,ENE,57,0.0,6.0,74,0.00,,OVC049,0.00,VWS V15.00,2017-03-24 09:12:00,
2017-03-24 05:17:00,67.8,59.2,30.26,NE,48,0.0,6.0,74,0.00,,OVC049,0.00,VWS V15.00,2017-03-24 09:17:00,
2017-03-24 05:22:00,67.8,59.2,30.25,NE,56,1.0,6.0,74,0.00,,OVC049,0.00,VWS V15.00,2017-03-24 09:22:00,
2017-03-24 05:27:00,67.8,59.6,30.25,ENE,58,3.0,6.0,75,0.00,,OVC049,0.00,VWS V15.00,2017-03-24 09:27:00,
2017-03-24 05:32:00,67.8,59.6,30.26,NE,54,2.0,7.0,75,0.00,,OVC049,0.00,VWS V15.00,2017-03-24 09:32:00,
2017-03-24 05:37:00,67.8,59.6,30.27,East,88,1.0,7.0,75,0.00,,OVC049,0.00,VWS V15.00,2017-03-24 09:37:00,
2017-03-24 05:42:00,67.7,59.1,30.26,NE,50,3.0,7.0,74,0.00,,OVC046,0.00,VWS V15.00,2017-03-24 09:42:00,
2017-03-24 05:47:00,67.8,59.2,30.27,East,83,0.0,10.0,74,0.00,,OVC046,0.00,VWS V15.00,2017-03-24 09:47:00,
2017-03-24 05:52:00,67.8,59.2,30.26,East,88,0.0,10.0,74,0.00,,OVC046,0.00,VWS V15.00,2017-03-24 09:52:00,
2017-03-24 05:57:00,67.7,59.5,30.26,NE,52,0.0,10.0,75,0.00,,OVC046,0.00,VWS V15.00,2017-03-24 09:57:00,
2017-03-24 06:02:00,67.7,59.5,30.27,ENE,77,0.0,6.0,75,0.00,,OVC046,0.00,VWS V15.00,2017-03-24 10:02:00,
2017-03-24 06:07:00,67.7,59.1,30.27,ENE,77,2.0,8.0,74,0.00,,OVC046,0.00,VWS V15.00,2017-03-24 10:07:00,
2017-03-24 06:12:00,67.7,59.1,30.27,East,80,1.0,9.0,74,0.00,,OVC046,0.00,VWS V15.00,2017-03-24 10:12:00,
2017-03-24 06:17:00,67.7,59.5,30.27,ESE,104,1.0,9.0,75,0.00,,OVC046,0.00,VWS V15.00,2017-03-24 10:17:00,
2017-03-24 06:22:00,67.7,59.1,30.27,ENE,68,0.0,9.0,74,0.00,,OVC046,0.00,VWS V15.00,2017-03-24 10:22:00,
2017-03-24 06:27:00,67.7,59.1,30.28,ENE,61,2.0,9.0,74,0.00,,OVC046,0.00,VWS V15.00,2017-03-24 10:27:00,
2017-03-24 06:32:00,67.7,59.1,30.28,NE,48,0.0,9.0,74,0.00,,OVC046,0.00,VWS V15.00,2017-03-24 10:32:00,
2017-03-24 06:37:00,67.8,59.2,30.28,ENE,61,0.0,9.0,74,0.00,,OVC046,0.00,VWS V15.00,2017-03-24 10:37:00,
2017-03-24 06:42:00,67.9,59.3,30.28,East,87,0.0,9.0,74,0.00,,OVC050,0.00,VWS V15.00,2017-03-24 10:42:00,
2017-03-24 06:47:00,67.9,59.3,30.28,NE,50,3.0,9.0,74,0.00,,OVC050,0.00,VWS V15.00,2017-03-24 10:47:00,
2017-03-24 06:52:00,67.9,59.3,30.28,ESE,110,0.0,9.0,74,0.00,,OVC050,0.00,VWS V15.00,2017-03-24 10:52:00,
2017-03-24 06:57:00,67.9,59.3,30.29,ENE,77,7.0,10.0,74,0.00,,OVC050,0.00,VWS V15.00,2017-03-24 10:57:00,
2017-03-24 07:02:00,68.1,59.5,30.28,East,85,7.0,7.0,74,0.00,,OVC050,0.00,VWS V15.00,2017-03-24 11:02:00,
2017-03-24 07:08:00,68.2,59.6,30.28,East,91,0.0,7.0,74,0.00,,OVC050,0.00,VWS V15.00,2017-03-24 11:08:00,
2017-03-24 07:13:00,68.2,59.2,30.30,ENE,74,0.0,7.0,73,0.00,,OVC050,0.00,VWS V15.00,2017-03-24 11:13:00,
2017-03-24 07:18:00,68.3,59.3,30.29,East,93,0.0,8.0,73,0.00,,OVC050,0.00,VWS V15.00,2017-03-24 11:18:00,
2017-03-24 07:23:00,68.3,59.3,30.29,NE,50,0.0,8.0,73,0.00,,OVC050,0.00,VWS V15.00,2017-03-24 11:23:00,
2017-03-24 07:28:00,68.5,59.1,30.30,East,94,0.0,10.0,72,0.00,,OVC050,0.00,VWS V15.00,2017-03-24 11:28:00,
2017-03-24 07:33:00,68.5,59.1,30.29,ENE,76,0.0,10.0,72,0.00,,OVC050,0.00,VWS V15.00,2017-03-24 11:33:00,
2017-03-24 07:38:00,68.5,58.7,30.30,ENE,61,0.0,10.0,71,0.00,,OVC050,0.00,VWS V15.00,2017-03-24 11:38:00,
2017-03-24 07:43:00,68.6,58.8,30.30,East,101,0.0,10.0,71,0.00,,OVC055,0.00,VWS V15.00,2017-03-24 11:43:00,
2017-03-24 07:48:00,68.6,59.2,30.30,ENE,76,0.0,10.0,72,0.00,,OVC055,0.00,VWS V15.00,2017-03-24 11:48:00,
2017-03-24 07:53:00,68.6,59.6,30.31,NE,42,0.0,10.0,73,0.00,,OVC055,0.00,VWS V15.00,2017-03-24 11:53:00,
2017-03-24 07:58:00,68.5,59.5,30.30,ENE,72,0.0,10.0,73,0.00,,OVC055,0.00,VWS V15.00,2017-03-24 11:58:00,
2017-03-24 08:03:00,68.6,59.6,30.30,ESE,106,0.0,0.0,73,0.00,,OVC055,0.00,VWS V15.00,2017-03-24 12:03:00,
2017-03-24 08:08:00,68.7,59.3,30.31,ENE,76,0.0,4.0,72,0.00,,OVC055,0.00,VWS V15.00,2017-03-24 12:08:00,
2017-03-24 08:13:00,68.8,59.4,30.31,ENE,76,1.0,6.0,72,0.00,,OVC055,0.00,VWS V15.00,2017-03-24 12:13:00,
2017-03-24 08:18:00,68.9,59.5,30.31,ENE,59,2.0,6.0,72,0.00,,OVC055,0.00,VWS V15.00,2017-03-24 12:18:00,
2017-03-24 08:24:00,69.1,59.7,30.30,ENE,78,2.0,6.0,72,0.00,,OVC055,0.00,VWS V15.00,2017-03-24 12:24:00,
2017-03-24 08:29:00,69.2,60.2,30.32,ENE,66,6.0,10.0,73,0.00,,OVC055,0.00,VWS V15.00,2017-03-24 12:29:00,
2017-03-24 08:34:00,69.2,60.2,30.31,NE,34,0.0,10.0,73,0.00,,OVC055,0.00,VWS V15.00,2017-03-24 12:34:00,
2017-03-24 08:39:00,69.2,59.8,30.31,NE,45,0.0,10.0,72,0.00,,OVC055,0.00,VWS V15.00,2017-03-24 12:39:00,
2017-03-24 08:44:00,69.4,59.6,30.31,East,85,2.0,10.0,71,0.00,,OVC060,0.00,VWS V15.00,2017-03-24 12:44:00,
2017-03-24 08:49:00,69.6,60.6,30.31,ESE,110,0.0,10.0,73,0.00,,OVC060,0.00,VWS V15.00,2017-03-24 12:49:00,
2017-03-24 08:54:00,69.9,60.5,30.32,ESE,104,0.0,10.0,72,0.00,,OVC060,0.00,VWS V15.00,2017-03-24 12:54:00,
2017-03-24 08:59:00,70.1,60.3,30.31,ENE,67,0.0,12.0,71,0.00,,OVC060,0.00,VWS V15.00,2017-03-24 12:59:00,
2017-03-24 09:04:00,70.1,59.5,30.32,ENE,76,0.0,8.0,69,0.00,,OVC060,0.00,VWS V15.00,2017-03-24 13:04:00,
2017-03-24 09:09:00,70.2,60.0,30.32,ENE,75,11.0,11.0,70,0.00,,OVC060,0.00,VWS V15.00,2017-03-24 13:09:00,
2017-03-24 09:14:00,70.4,59.3,30.32,ENE,70,5.0,11.0,68,0.00,,OVC060,0.00,VWS V15.00,2017-03-24 13:14:00,
2017-03-24 09:19:00,70.5,59.8,30.33,ESE,104,2.0,13.0,69,0.00,,OVC060,0.00,VWS V15.00,2017-03-24 13:19:00,
2017-03-24 09:24:00,70.6,59.5,30.32,ENE,70,5.0,13.0,68,0.00,,OVC060,0.00,VWS V15.00,2017-03-24 13:24:00,
2017-03-24 09:29:00,70.8,60.1,30.33,NE,48,0.0,13.0,69,0.00,,OVC060,0.00,VWS V15.00,2017-03-24 13:29:00,
2017-03-24 09:34:00,70.9,60.6,30.33,NE,51,1.0,13.0,70,0.00,,OVC060,0.00,VWS V15.00,2017-03-24 13:34:00,
2017-03-24 09:39:00,71.0,61.1,30.33,NE,54,6.0,17.0,71,0.00,,OVC060,0.00,VWS V15.00,2017-03-24 13:39:00,
2017-03-24 09:44:00,70.9,59.8,30.33,NE,49,3.0,17.0,68,0.00,,SCT040,0.00,VWS V15.00,2017-03-24 13:44:00,
2017-03-24 09:49:00,71.0,60.3,30.32,ENE,67,7.0,17.0,69,0.00,,SCT040,0.00,VWS V15.00,2017-03-24 13:49:00,
2017-03-24 09:54:00,71.0,59.5,30.33,ESE,112,0.0,17.0,67,0.00,,SCT040,0.00,VWS V15.00,2017-03-24 13:54:00,
2017-03-24 09:59:00,71.1,60.0,30.33,NE,47,0.0,17.0,68,0.00,,SCT040,0.00,VWS V15.00,2017-03-24 13:59:00,
2017-03-24 10:00:00,71.1,60.0,30.34,ENE,63,0.0,2.0,68,0.00,,SCT040,0.00,VWS V15.00,2017-03-24 14:00:00,
2017-03-24 10:05:00,71.3,63.3,30.33,NE,55,5.0,9.0,76,0.00,,SCT040,0.00,VWS V15.00,2017-03-24 14:05:00,
2017-03-24 10:10:00,71.5,63.2,30.34,ENE,68,10.0,16.0,75,0.00,,SCT040,0.00,VWS V15.00,2017-03-24 14:10:00,
2017-03-24 10:15:00,71.5,62.8,30.34,NE,55,1.0,16.0,74,0.00,,SCT040,0.00,VWS V15.00,2017-03-24 14:15:00,
2017-03-24 10:20:00,71.3,62.2,30.34,East,82,2.0,16.0,73,0.00,,SCT040,0.00,VWS V15.00,2017-03-24 14:20:00,
2017-03-24 10:25:00,71.3,62.2,30.34,NE,53,0.0,16.0,73,0.00,,SCT040,0.00,VWS V15.00,2017-03-24 14:25:00,
2017-03-24 10:30:00,71.2,59.7,30.34,ENE,61,2.0,16.0,67,0.00,,SCT040,0.00,VWS V15.00,2017-03-24 14:30:00,
2017-03-24 10:35:00,71.1,59.6,30.34,NE,56,13.0,17.0,67,0.00,,SCT040,0.00,VWS V15.00,2017-03-24 14:35:00,
2017-03-24 10:40:00,71.4,59.9,30.34,NE,52,0.0,17.0,67,0.00,,SCT040,0.00,VWS V15.00,2017-03-24 14:40:00,
2017-03-24 10:45:00,71.7,59.8,30.34,NE,56,1.0,17.0,66,0.00,,OVC060,0.00,VWS V15.00,2017-03-24 14:45:00,
2017-03-24 10:50:00,72.2,59.8,30.34,NE,54,7.0,17.0,65,0.00,,OVC060,0.00,VWS V15.00,2017-03-24 14:50:00,
2017-03-24 10:55:00,72.2,59.4,30.34,NE,51,4.0,17.0,64,0.00,,OVC060,0.00,VWS V15.00,2017-03-24 14:55:00,
2017-03-24 11:00:00,72.1,59.7,30.35,ENE,61,2.0,8.0,65,0.00,,OVC060,0.00,VWS V15.00,2017-03-24 15:00:00,
2017-03-24 11:02:00,72.2,59.8,30.35,NE,53,2.0,8.0,65,0.00,,OVC060,0.00,VWS V15.00,2017-03-24 15:02:00,
2017-03-24 11:07:00,72.4,59.5,30.34,NE,54,0.0,11.0,64,0.00,,OVC060,0.00,VWS V15.00,2017-03-24 15:07:00,